Terminal Aerodrome Forecast
Issued by NWS Portland, OR

Home | Current Version | Previous Version | Text Only | Print | Product List | Glossary On
Versions: 1 2 3 4 5 6 7 8 9 10 11 12 13 14 15 16 17 18 19 20 21 22 23 24 25 26 27 28 29 30 31 32 33 34 35 36 37 38 39 40 41 42 43 44 45 46 47 48
030
FTUS46 KPQR 091445 AAA
TAFSLE
TAF AMD
KSLE 091445Z 0915/1012 00000KT 3SM -SHRA BKN003 OVC015
     FM091800 16005KT P6SM -SHRA SCT003 BKN015 OVC025
     FM092100 18007KT P6SM -SHRA SCT008 BKN025 OVC040=

USA.gov is the U.S. government's official web portal to all federal, state and local government web resources and services.